Home   Weather   Osøyro   Past weeks

Flag for Norway Past Weather in Osøyro, Norway — Yesterday and Last 2 Weeks

Now
55 °F

Rain showers. Overcast.


Feels Like: 55 °F
Forecast: 54 / 58 °F
Wind: 5 mph from South

Location: Bergen / Flesland

Current Time: Sep 26, 2016 at 4:11:38 AM

Latest Report: Sep 26, 2016 at 2:00 AM


Visibility: 9 mi

Pressure: 29.94 "Hg

Humidity: 91%

Dew Point: 53 °F

Location of OsøyroLocation

Past Weather in Osøyro — Graph

°F

Osøyro Temperature Yesterday

Maximum temperature yesterday: 69 °F (at 2:00 PM)
Minimum temperature yesterday: 58 °F (at 11:00 PM)
Average temperature yesterday: 64 °F

High & Low Weather Summary for the Past Weeks

 TemperatureHumidityPressure
High76 °F (Sep 16, 3:00 PM)98% (Sep 15, 4:00 AM)30.19 "Hg (Sep 15, 4:00 AM)
Low52 °F (Sep 23, 9:00 PM)45% (Sep 25, 6:00 PM)29.68 "Hg (Sep 11, 4:00 AM)
Average61 °F80%30.05 "Hg
* Reported Sep 11 2:00 AM — Sep 26 2:00 AM, Osøyro, Weather by CustomWeather, © 2016

Note: Actual official high and low records may vary slightly from our data, if they occured in-between our weather recording intervals... More about our weather records

Advertising

Osøyro Weather History for the Previous 24 Hours

Scroll right to see more
 ConditionsComfort  
Time TempWeatherWind HumidityBarometerVisibility
2:00 AM
Mon, Sep 26
55 °FRain showers. Overcast.5 mph91%29.94 "Hg9 mi
1:00 AM57 °FLight rain. Overcast.6 mph93%29.91 "Hg8 mi
12:00 AM57 °FRain. Low clouds.12 mph94%29.88 "Hg2 mi
11:00 PM
Sun, Sep 25
58 °FRain. Low clouds.9 mph89%29.85 "Hg4 mi
10:00 PM65 °FOvercast.10 mph52%29.83 "Hg28 mi
9:00 PM67 °FOvercast.12 mph46%29.80 "Hg31 mi
8:00 PM66 °FOvercast.9 mph49%29.81 "Hg31 mi
7:00 PM67 °FOvercast.13 mph46%29.83 "Hg31 mi
6:00 PM68 °FSunny.15 mph45%29.82 "Hg25 mi
5:00 PM68 °FScattered clouds.15 mph51%29.83 "Hg22 mi
4:00 PM68 °FPartly sunny.14 mph51%29.82 "Hg16 mi
3:00 PM69 °FPassing clouds.12 mph52%29.82 "Hg22 mi
2:00 PM69 °FPassing clouds.14 mph51%29.83 "Hg22 mi
1:00 PM69 °FPassing clouds.14 mph53%29.84 "Hg22 mi
12:00 PM67 °FOvercast.13 mph59%29.85 "Hg19 mi
11:00 AM65 °FPartly sunny.10 mph66%29.85 "Hg19 mi
10:00 AM64 °FPartly sunny.10 mph70%29.85 "Hg22 mi
9:00 AM63 °FPartly sunny.10 mph72%29.84 "Hg22 mi
8:00 AM63 °FPartly sunny.10 mph73%29.85 "Hg19 mi
7:00 AM62 °FOvercast.10 mph72%29.85 "Hg25 mi
6:00 AM62 °FOvercast.12 mph71%29.85 "Hg22 mi
5:00 AM62 °FOvercast.10 mph70%29.86 "Hg28 mi
4:00 AM62 °FOvercast.9 mph73%29.87 "Hg25 mi
Weather by CustomWeather, © 2016

See weather overviewHow to use our weather pages